Location: Fort Worth, Tx
(32.7431°N, 97.3695°W)
Time: 12:33:10
(UTC-04:00)

ZACube-1 - Visible Passes

Search period start: 19 September 2020 00:00
Search period end: 29 September 2020 00:00
Orbit: 584 x 666 km, 97.6° (Epoch: 18 September)

Date Brightness Start Highest point End Pass type
(mag) Time Alt. Az. Time Alt. Az. Time Alt. Az.
19 Sep ? 07:40:36 10° NNE 07:45:08 62° E 07:49:39 10° S visible
21 Sep ? 06:44:16 10° ENE 06:46:23 13° E 06:48:29 10° ESE visible
22 Sep ? 07:01:51 10° NE 07:05:22 22° E 07:08:51 10° SE visible
23 Sep ? 07:20:06 10° NNE 07:24:18 35° E 07:28:28 10° SSE visible
24 Sep ? 07:38:40 10° NNE 07:43:12 60° E 07:47:41 10° S visible
26 Sep ? 06:42:28 10° ENE 06:44:26 13° E 06:46:22 10° ESE visible
27 Sep ? 06:59:58 10° NE 07:03:25 21° E 07:06:50 10° SE visible
28 Sep ? 07:18:11 10° NNE 07:22:22 34° E 07:26:28 10° SSE visible
